When you browse on this site, cookies collect data to enhance your experience and personalize the content and advertising you see.
Visit our Privacy Policy to learn more. By continuing to use the site, you agree to this use of cookies and data.

Hourly Weather Tibissa

Today, 24 September, Thursday

Time Temperature Precipitation Wind Pressure Humidity
00:00 +25°C° 0.1 mm 2 mps 687 mmHg 51%
01:00 +25°C° 0 mm 1 mps 687 mmHg 50%
02:00 +24°C° 0 mm 1 mps 687 mmHg 50%
03:00 +24°C° 0 mm 2 mps 687 mmHg 50%
04:00 +24°C° 0 mm 2 mps 686 mmHg 50%
05:00 +24°C° 0 mm 2 mps 687 mmHg 49%
06:00 +24°C° 0 mm 2 mps 687 mmHg 48%
07:00 +25°C° 0 mm 2 mps 687 mmHg 47%
08:00 +27°C° 0 mm 3 mps 688 mmHg 41%
09:00 +29°C° 0 mm 4 mps 688 mmHg 34%
10:00 +32°C° 0 mm 5 mps 689 mmHg 28%
11:00 +33°C° 0 mm 6 mps 689 mmHg 27%
12:00 +33°C° 0 mm 7 mps 689 mmHg 26%
13:00 +34°C° 0 mm 8 mps 689 mmHg 25%
14:00 +34°C° 0 mm 8 mps 688 mmHg 25%
15:00 +34°C° 0 mm 7 mps 688 mmHg 26%
16:00 +34°C° 0 mm 7 mps 688 mmHg 26%
17:00 +33°C° 0 mm 6 mps 688 mmHg 28%
18:00 +30°C° 0 mm 5 mps 687 mmHg 30%
19:00 +29°C° 0 mm 4 mps 687 mmHg 33%
20:00 +29°C° 0 mm 3 mps 688 mmHg 34%
21:00 +28°C° 0 mm 3 mps 688 mmHg 35%
22:00 +28°C° 0 mm 3 mps 688 mmHg 37%
23:00 +27°C° 0 mm 2 mps 688 mmHg 38%

Tomorrow, 25 September, Friday

Time Temperature Precipitation Wind Pressure Humidity
00:00 +27°C° 0 mm 2 mps 687 mmHg 38%
01:00 +26°C° 0 mm 2 mps 687 mmHg 39%
02:00 +26°C° 0 mm 2 mps 686 mmHg 41%
03:00 +26°C° 0 mm 2 mps 686 mmHg 43%
04:00 +25°C° 0 mm 1 mps 686 mmHg 44%
05:00 +25°C° 0 mm 1 mps 686 mmHg 46%
06:00 +25°C° 0 mm 1 mps 686 mmHg 47%
07:00 +25°C° 0 mm 1 mps 685 mmHg 49%
08:00 +27°C° 0 mm 2 mps 686 mmHg 42%
09:00 +29°C° 0 mm 3 mps 686 mmHg 36%
10:00 +32°C° 0 mm 5 mps 687 mmHg 29%
11:00 +33°C° 0 mm 6 mps 687 mmHg 26%
12:00 +34°C° 0 mm 8 mps 686 mmHg 23%
13:00 +36°C° 0 mm 10 mps 686 mmHg 20%
14:00 +34°C° 0 mm 11 mps 686 mmHg 21%
15:00 +33°C° 0 mm 11 mps 685 mmHg 22%
16:00 +32°C° 0 mm 12 mps 684 mmHg 23%
17:00 +29°C° 0 mm 10 mps 684 mmHg 32%
18:00 +27°C° 0 mm 8 mps 684 mmHg 41%
19:00 +24°C° 0 mm 7 mps 684 mmHg 51%
20:00 +23°C° 0 mm 7 mps 684 mmHg 59%
21:00 +21°C° 0 mm 6 mps 684 mmHg 66%
22:00 +20°C° 0 mm 6 mps 684 mmHg 74%
23:00 +18°C° 0 mm 8 mps 684 mmHg 73%

Day after tomorrow, 26 September, Saturday

Time Temperature Precipitation Wind Pressure Humidity
00:00 +17°C° 0 mm 9 mps 684 mmHg 71%
01:00 +16°C° 0 mm 10 mps 683 mmHg 69%
02:00 +14°C° 0 mm 11 mps 683 mmHg 67%
03:00 +13°C° 0 mm 12 mps 683 mmHg 64%
04:00 +12°C° 0 mm 12 mps 682 mmHg 61%
05:00 +12°C° 0 mm 13 mps 682 mmHg 62%
06:00 +12°C° 0 mm 14 mps 682 mmHg 63%
07:00 +10°C° 0 mm 14 mps 682 mmHg 64%
08:00 +12°C° 0 mm 14 mps 683 mmHg 61%
09:00 +13°C° 0 mm 14 mps 683 mmHg 57%
10:00 +14°C° 0 mm 14 mps 684 mmHg 54%
11:00 +14°C° 0 mm 12 mps 684 mmHg 55%
12:00 +14°C° 0 mm 10 mps 684 mmHg 55%
13:00 +15°C° 0 mm 8 mps 684 mmHg 56%
14:00 +15°C° 0 mm 8 mps 684 mmHg 56%
15:00 +15°C° 0 mm 8 mps 684 mmHg 56%
16:00 +15°C° 0 mm 8 mps 684 mmHg 56%
17:00 +15°C° 0 mm 7 mps 684 mmHg 60%
18:00 +14°C° 0 mm 7 mps 684 mmHg 63%
19:00 +13°C° 0 mm 6 mps 684 mmHg 67%
20:00 +13°C° 0 mm 5 mps 684 mmHg 68%
21:00 +12°C° 0 mm 4 mps 684 mmHg 69%
22:00 +12°C° 0 mm 3 mps 684 mmHg 70%
23:00 +12°C° 0 mm 3 mps 684 mmHg 71%

27 September, Sunday

Time Temperature Precipitation Wind Pressure Humidity
00:00 +13°C° 0 mm 2 mps 684 mmHg 71%
01:00 +12°C° 0 mm 1 mps 683 mmHg 72%
02:00 +12°C° 0 mm 1 mps 683 mmHg 73%
03:00 +12°C° 0 mm 1 mps 683 mmHg 74%
04:00 +12°C° 0 mm 1 mps 683 mmHg 75%
05:00 +12°C° 0 mm 2 mps 683 mmHg 74%
06:00 +13°C° 0 mm 2 mps 683 mmHg 74%
07:00 +13°C° 0 mm 2 mps 683 mmHg 74%
08:00 +13°C° 0 mm 4 mps 683 mmHg 67%
09:00 +15°C° 0 mm 6 mps 684 mmHg 61%
10:00 +16°C° 0 mm 8 mps 684 mmHg 54%
11:00 +17°C° 0 mm 9 mps 684 mmHg 53%
12:00 +17°C° 0 mm 9 mps 684 mmHg 51%
13:00 +18°C° 0 mm 9 mps 683 mmHg 50%
14:00 +20°C° 0 mm 8 mps 683 mmHg 47%
15:00 +20°C° 0 mm 7 mps 683 mmHg 45%
16:00 +20°C° 0 mm 6 mps 682 mmHg 43%
17:00 +20°C° 0 mm 5 mps 682 mmHg 44%
18:00 +19°C° 0 mm 4 mps 682 mmHg 44%
19:00 +19°C° 0 mm 3 mps 682 mmHg 45%
20:00 +18°C° 0 mm 3 mps 682 mmHg 46%
21:00 +18°C° 0 mm 3 mps 683 mmHg 46%
22:00 +17°C° 0 mm 2 mps 683 mmHg 47%
23:00 +17°C° 0 mm 3 mps 683 mmHg 48%

28 September, Monday

Time Temperature Precipitation Wind Pressure Humidity
00:00 +17°C° 0 mm 3 mps 683 mmHg 50%
01:00 +16°C° 0 mm 3 mps 682 mmHg 52%
02:00 +16°C° 0 mm 3 mps 682 mmHg 53%
03:00 +16°C° 0 mm 2 mps 682 mmHg 54%
04:00 +15°C° 0 mm 2 mps 681 mmHg 55%
05:00 +14°C° 0 mm 3 mps 682 mmHg 54%
06:00 +16°C° 0 mm 3 mps 682 mmHg 53%
07:00 +16°C° 0 mm 3 mps 682 mmHg 51%
08:00 +17°C° 0 mm 4 mps 683 mmHg 47%
09:00 +19°C° 0 mm 6 mps 684 mmHg 42%
10:00 +21°C° 0 mm 7 mps 684 mmHg 38%
11:00 +21°C° 0 mm 7 mps 685 mmHg 39%
12:00 +21°C° 0 mm 7 mps 685 mmHg 41%
13:00 +22°C° 0 mm 7 mps 685 mmHg 42%
14:00 +21°C° 0 mm 7 mps 685 mmHg 45%
15:00 +21°C° 0 mm 7 mps 685 mmHg 47%
16:00 +21°C° 0 mm 6 mps 685 mmHg 50%
17:00 +19°C° 0 mm 6 mps 685 mmHg 56%
18:00 +17°C° 0 mm 5 mps 685 mmHg 62%
19:00 +16°C° 0 mm 5 mps 685 mmHg 68%
20:00 +15°C° 0 mm 4 mps 686 mmHg 69%
21:00 +16°C° 0 mm 3 mps 686 mmHg 71%
22:00 +15°C° 0 mm 2 mps 686 mmHg 73%
23:00 +15°C° 0 mm 1 mps 686 mmHg 74%

29 September, Tuesday

Time Temperature Precipitation Wind Pressure Humidity
00:00 +15°C° 0 mm 1 mps 686 mmHg 75%
01:00 +14°C° 0 mm 0 mps 686 mmHg 76%
02:00 +15°C° 0 mm 1 mps 686 mmHg 75%
03:00 +15°C° 0 mm 1 mps 686 mmHg 75%
04:00 +15°C° 0 mm 1 mps 686 mmHg 74%
05:00 +15°C° 0 mm 2 mps 686 mmHg 74%
06:00 +15°C° 0 mm 2 mps 686 mmHg 74%
07:00 +15°C° 0 mm 2 mps 687 mmHg 74%
08:00 +17°C° 0 mm 3 mps 687 mmHg 65%
09:00 +19°C° 0 mm 3 mps 688 mmHg 57%
10:00 +21°C° 0 mm 3 mps 688 mmHg 48%
11:00 +22°C° 0 mm 4 mps 688 mmHg 44%
12:00 +25°C° 0 mm 5 mps 689 mmHg 39%
13:00 +27°C° 0 mm 5 mps 689 mmHg 35%
14:00 +27°C° 0 mm 5 mps 689 mmHg 33%
15:00 +28°C° 0 mm 5 mps 688 mmHg 32%
16:00 +28°C° 0 mm 4 mps 688 mmHg 30%
17:00 +27°C° 0 mm 3 mps 688 mmHg 34%
18:00 +26°C° 0 mm 2 mps 687 mmHg 38%
19:00 +25°C° 0 mm 1 mps 687 mmHg 42%
20:00 +24°C° 0 mm 1 mps 687 mmHg 43%
21:00 +24°C° 0 mm 2 mps 687 mmHg 44%
22:00 +23°C° 0 mm 2 mps 687 mmHg 45%
23:00 +23°C° 0 mm 2 mps 687 mmHg 46%
Show more